Year,Month,Day,Hour,Minute,Value (Times are PST for windspeed in km/hr)
2012,01,24,00,00,2.70
2012,01,24,00,01,4.70
2012,01,24,00,02,8.10
2012,01,24,00,03,4.30
2012,01,24,00,04,4.40
2012,01,24,00,05,5.10
2012,01,24,00,06,2.30
2012,01,24,00,07,6.70
2012,01,24,00,08,7.40
2012,01,24,00,09,7.00
2012,01,24,00,10,9.50
2012,01,24,00,11,3.70
2012,01,24,00,12,6.90
2012,01,24,00,13,5.30
2012,01,24,00,14,5.40
2012,01,24,00,15,4.60
2012,01,24,00,16,6.90
2012,01,24,00,17,2.80
2012,01,24,00,18,5.70
2012,01,24,00,19,10.00
2012,01,24,00,20,8.90
2012,01,24,00,21,7.60
2012,01,24,00,22,6.30
2012,01,24,00,23,4.30
2012,01,24,00,24,3.10
2012,01,24,00,25,7.10
2012,01,24,00,26,5.30
2012,01,24,00,27,4.10
2012,01,24,00,28,2.90
2012,01,24,00,29,3.00
2012,01,24,00,30,6.70
2012,01,24,00,31,6.30
2012,01,24,00,32,4.50
2012,01,24,00,33,3.50
2012,01,24,00,34,4.10
2012,01,24,00,35,2.70
2012,01,24,00,36,0.90
2012,01,24,00,37,0.50
2012,01,24,00,38,1.80
2012,01,24,00,39,0.20
2012,01,24,00,40,1.70
2012,01,24,00,41,4.80
2012,01,24,00,42,4.90
2012,01,24,00,43,1.80
2012,01,24,00,44,2.00
2012,01,24,00,45,3.10
2012,01,24,00,46,6.40
2012,01,24,00,47,5.10
2012,01,24,00,48,3.70
2012,01,24,00,49,2.90
2012,01,24,00,50,4.00
2012,01,24,00,51,2.70
2012,01,24,00,52,1.80
2012,01,24,00,53,1.00
2012,01,24,00,54,3.10
2012,01,24,00,55,1.20
2012,01,24,00,56,2.50
2012,01,24,00,57,0.80
2012,01,24,00,58,0.10
2012,01,24,00,59,1.90
2012,01,24,01,00,5.40
2012,01,24,01,01,6.50
2012,01,24,01,02,3.00
2012,01,24,01,03,0.60
2012,01,24,01,04,1.90
2012,01,24,01,05,2.20
2012,01,24,01,06,6.90
2012,01,24,01,07,5.80
2012,01,24,01,08,2.80
2012,01,24,01,09,3.10
2012,01,24,01,10,1.60
2012,01,24,01,11,1.80
2012,01,24,01,12,6.80
2012,01,24,01,13,8.50
2012,01,24,01,14,8.50
2012,01,24,01,15,2.10
2012,01,24,01,16,4.60
2012,01,24,01,17,7.40
2012,01,24,01,18,5.80
2012,01,24,01,19,4.20
2012,01,24,01,20,9.70
2012,01,24,01,21,13.90
2012,01,24,01,22,5.00
2012,01,24,01,23,3.10
2012,01,24,01,24,9.00
2012,01,24,01,25,6.50
2012,01,24,01,26,7.10
2012,01,24,01,27,5.60
2012,01,24,01,28,5.50
2012,01,24,01,29,5.20
2012,01,24,01,30,6.30
2012,01,24,01,31,7.10
2012,01,24,01,32,8.10
2012,01,24,01,33,7.30
2012,01,24,01,34,5.80
2012,01,24,01,35,1.90
2012,01,24,01,36,3.90
2012,01,24,01,37,4.60
2012,01,24,01,38,2.60
2012,01,24,01,39,4.70
2012,01,24,01,40,6.40
2012,01,24,01,41,0.70
2012,01,24,01,42,5.40
2012,01,24,01,43,8.00
2012,01,24,01,44,4.00
2012,01,24,01,45,3.40
2012,01,24,01,46,2.80
2012,01,24,01,47,5.30
2012,01,24,01,48,2.50
2012,01,24,01,49,4.30
2012,01,24,01,50,7.70
2012,01,24,01,51,8.00
2012,01,24,01,52,7.50
2012,01,24,01,53,5.00
2012,01,24,01,54,8.50
2012,01,24,01,55,6.00
2012,01,24,01,56,9.60
2012,01,24,01,57,7.20
2012,01,24,01,58,5.90
2012,01,24,01,59,5.70
2012,01,24,02,00,14.10
2012,01,24,02,01,11.30
2012,01,24,02,02,12.90
2012,01,24,02,03,11.50
2012,01,24,02,04,8.20
2012,01,24,02,05,13.70
2012,01,24,02,06,5.20
2012,01,24,02,07,12.30
2012,01,24,02,08,14.50
2012,01,24,02,09,12.40
2012,01,24,02,10,12.20
2012,01,24,02,11,13.70
2012,01,24,02,12,11.80
2012,01,24,02,13,12.20
2012,01,24,02,14,13.00
2012,01,24,02,15,12.50
2012,01,24,02,16,9.40
2012,01,24,02,17,9.70
2012,01,24,02,18,9.40
2012,01,24,02,19,8.20
2012,01,24,02,20,8.50
2012,01,24,02,21,5.90
2012,01,24,02,22,8.20
2012,01,24,02,23,10.00
2012,01,24,02,24,8.00
2012,01,24,02,25,9.80
2012,01,24,02,26,11.90
2012,01,24,02,27,8.10
2012,01,24,02,28,9.00
2012,01,24,02,29,9.60
2012,01,24,02,30,6.40
2012,01,24,02,31,7.90
2012,01,24,02,32,4.40
2012,01,24,02,33,5.40
2012,01,24,02,34,9.50
2012,01,24,02,35,7.30
2012,01,24,02,36,8.70
2012,01,24,02,37,9.00
2012,01,24,02,38,6.40
2012,01,24,02,39,7.40
2012,01,24,02,40,7.10
2012,01,24,02,41,7.10
2012,01,24,02,42,8.20
2012,01,24,02,43,7.20
2012,01,24,02,44,10.10
2012,01,24,02,45,9.90
2012,01,24,02,46,8.60
2012,01,24,02,47,10.70
2012,01,24,02,48,12.80
2012,01,24,02,49,10.40
2012,01,24,02,50,13.30
2012,01,24,02,51,8.20
2012,01,24,02,52,7.60
2012,01,24,02,53,8.40
2012,01,24,02,54,12.70
2012,01,24,02,55,18.00
2012,01,24,02,56,12.60
2012,01,24,02,57,11.60
2012,01,24,02,58,13.50
2012,01,24,02,59,9.30
2012,01,24,03,00,14.20
2012,01,24,03,01,12.20
2012,01,24,03,02,11.70
2012,01,24,03,03,9.70
2012,01,24,03,04,13.00
2012,01,24,03,05,10.60
2012,01,24,03,06,10.90
2012,01,24,03,07,15.00
2012,01,24,03,08,13.20
2012,01,24,03,09,6.80
2012,01,24,03,10,16.00
2012,01,24,03,11,15.90
2012,01,24,03,12,13.00
2012,01,24,03,13,8.40
2012,01,24,03,14,10.90
2012,01,24,03,15,12.30
2012,01,24,03,16,17.90
2012,01,24,03,17,15.20
2012,01,24,03,18,10.30
2012,01,24,03,19,7.80
2012,01,24,03,20,14.20
2012,01,24,03,21,15.90
2012,01,24,03,22,9.70
2012,01,24,03,23,7.00
2012,01,24,03,24,14.70
2012,01,24,03,25,14.90
2012,01,24,03,26,10.50
2012,01,24,03,27,12.00
2012,01,24,03,28,7.60
2012,01,24,03,29,10.80
2012,01,24,03,30,10.10
2012,01,24,03,31,13.80
2012,01,24,03,32,11.70
2012,01,24,03,33,16.20
2012,01,24,03,34,14.60
2012,01,24,03,35,15.80
2012,01,24,03,36,18.30
2012,01,24,03,37,20.10
2012,01,24,03,38,13.70
2012,01,24,03,39,14.60
2012,01,24,03,40,21.90
2012,01,24,03,41,12.50
2012,01,24,03,42,13.20
2012,01,24,03,43,16.10
2012,01,24,03,44,12.90
2012,01,24,03,45,20.40
2012,01,24,03,46,14.70
2012,01,24,03,47,13.80
2012,01,24,03,48,16.10
2012,01,24,03,49,17.00
2012,01,24,03,50,15.90
2012,01,24,03,51,20.10
2012,01,24,03,52,11.20
2012,01,24,03,53,10.20
2012,01,24,03,54,15.80
2012,01,24,03,55,11.50
2012,01,24,03,56,9.30
2012,01,24,03,57,10.50
2012,01,24,03,58,14.00
2012,01,24,03,59,11.00
2012,01,24,04,00,11.30
2012,01,24,04,01,9.20
2012,01,24,04,02,11.30
2012,01,24,04,03,10.30
2012,01,24,04,04,13.50
2012,01,24,04,05,9.70
2012,01,24,04,06,16.50
2012,01,24,04,07,18.90
2012,01,24,04,08,12.60
2012,01,24,04,09,13.30
2012,01,24,04,10,11.80
2012,01,24,04,11,9.50
2012,01,24,04,12,20.80
2012,01,24,04,13,10.30
2012,01,24,04,14,11.70
2012,01,24,04,15,12.10
2012,01,24,04,16,16.60
2012,01,24,04,17,15.60
2012,01,24,04,18,16.40
2012,01,24,04,19,17.20
2012,01,24,04,20,16.30
2012,01,24,04,21,19.20
2012,01,24,04,22,13.70
2012,01,24,04,23,16.30
2012,01,24,04,24,15.00
2012,01,24,04,25,10.00
2012,01,24,04,26,13.20
2012,01,24,04,27,17.10
2012,01,24,04,28,15.00
2012,01,24,04,29,17.10
2012,01,24,04,30,24.70
2012,01,24,04,31,15.30
2012,01,24,04,32,12.10
2012,01,24,04,33,16.60
2012,01,24,04,34,18.80
2012,01,24,04,35,16.90
2012,01,24,04,36,14.30
2012,01,24,04,37,12.60
2012,01,24,04,38,14.20
2012,01,24,04,39,13.40
2012,01,24,04,40,13.20
2012,01,24,04,41,16.30
2012,01,24,04,42,12.60
2012,01,24,04,43,14.90
2012,01,24,04,44,12.50
2012,01,24,04,45,15.30
2012,01,24,04,46,12.60
2012,01,24,04,47,11.00
2012,01,24,04,48,18.20
2012,01,24,04,49,19.90
2012,01,24,04,50,21.80
2012,01,24,04,51,20.00
2012,01,24,04,52,18.30
2012,01,24,04,53,18.90
2012,01,24,04,54,19.30
2012,01,24,04,55,18.40
2012,01,24,04,56,19.50
2012,01,24,04,57,17.30
2012,01,24,04,58,14.40
2012,01,24,04,59,19.30
2012,01,24,05,00,19.50
2012,01,24,05,01,19.50
2012,01,24,05,02,21.30
2012,01,24,05,03,17.60
2012,01,24,05,04,14.20
2012,01,24,05,05,16.00
2012,01,24,05,06,13.60
2012,01,24,05,07,16.60
2012,01,24,05,08,14.20
2012,01,24,05,09,24.00
2012,01,24,05,10,18.40
2012,01,24,05,11,20.40
2012,01,24,05,12,18.50
2012,01,24,05,13,18.30
2012,01,24,05,14,20.00
2012,01,24,05,15,20.90
2012,01,24,05,16,15.20
2012,01,24,05,17,17.20
2012,01,24,05,18,18.10
2012,01,24,05,19,16.30
2012,01,24,05,20,10.10
2012,01,24,05,21,11.50
2012,01,24,05,22,20.10
2012,01,24,05,23,14.30
2012,01,24,05,24,11.90
2012,01,24,05,25,10.10
2012,01,24,05,26,14.30
2012,01,24,05,27,15.00
2012,01,24,05,28,17.40
2012,01,24,05,29,17.40
2012,01,24,05,30,13.40
2012,01,24,05,31,18.90
2012,01,24,05,32,21.90
2012,01,24,05,33,15.00
2012,01,24,05,34,14.70
2012,01,24,05,35,16.70
2012,01,24,05,36,20.90
2012,01,24,05,37,17.90
2012,01,24,05,38,13.50
2012,01,24,05,39,16.30
2012,01,24,05,40,15.20
2012,01,24,05,41,14.20
2012,01,24,05,42,12.10
2012,01,24,05,43,17.50
2012,01,24,05,44,18.60
2012,01,24,05,45,20.80
2012,01,24,05,46,16.90
2012,01,24,05,47,15.50
2012,01,24,05,48,16.60
2012,01,24,05,49,23.00
2012,01,24,05,50,18.70
2012,01,24,05,51,26.30
2012,01,24,05,52,14.50
2012,01,24,05,53,14.50
2012,01,24,05,54,9.90
2012,01,24,05,55,18.40
2012,01,24,05,56,17.70
2012,01,24,05,57,18.90
2012,01,24,05,58,21.70
2012,01,24,05,59,17.00
2012,01,24,06,00,16.20
2012,01,24,06,01,16.50
2012,01,24,06,02,16.60
2012,01,24,06,03,13.00
2012,01,24,06,04,18.90
2012,01,24,06,05,16.00
2012,01,24,06,06,14.60
2012,01,24,06,07,16.20
2012,01,24,06,08,21.40
2012,01,24,06,09,11.50
2012,01,24,06,10,12.10
2012,01,24,06,11,5.00
2012,01,24,06,12,18.90
2012,01,24,06,13,16.20
2012,01,24,06,14,20.90
2012,01,24,06,15,23.00
2012,01,24,06,16,18.80
2012,01,24,06,17,18.50
2012,01,24,06,18,18.20
2012,01,24,06,19,14.60
2012,01,24,06,20,15.50
2012,01,24,06,21,17.50
2012,01,24,06,22,15.20
2012,01,24,06,23,16.50
2012,01,24,06,24,14.60
2012,01,24,06,25,17.90
2012,01,24,06,26,15.00
2012,01,24,06,27,18.70
2012,01,24,06,28,14.50
2012,01,24,06,29,20.50
2012,01,24,06,30,21.90
2012,01,24,06,31,23.90
2012,01,24,06,32,16.70
2012,01,24,06,33,21.80
2012,01,24,06,34,14.60
2012,01,24,06,35,15.70
2012,01,24,06,36,14.70
2012,01,24,06,37,19.90
2012,01,24,06,38,19.80
2012,01,24,06,39,19.00
2012,01,24,06,40,19.70
2012,01,24,06,41,13.80
2012,01,24,06,42,18.50
2012,01,24,06,43,14.60
2012,01,24,06,44,18.90
2012,01,24,06,45,14.70
2012,01,24,06,46,16.30
2012,01,24,06,47,16.40
2012,01,24,06,48,14.00
2012,01,24,06,49,12.90
2012,01,24,06,50,20.10
2012,01,24,06,51,14.60
2012,01,24,06,52,17.10
2012,01,24,06,53,17.40
2012,01,24,06,54,21.20
2012,01,24,06,55,14.80
2012,01,24,06,56,10.00
2012,01,24,06,57,17.40
2012,01,24,06,58,11.90
2012,01,24,06,59,13.10
2012,01,24,07,00,18.50
2012,01,24,07,01,15.20
2012,01,24,07,02,13.80
2012,01,24,07,03,18.20
2012,01,24,07,04,17.20
2012,01,24,07,05,15.40
2012,01,24,07,06,15.00
2012,01,24,07,07,18.20
2012,01,24,07,08,19.30
2012,01,24,07,09,17.80
2012,01,24,07,10,13.10
2012,01,24,07,11,17.60
2012,01,24,07,12,6.70
2012,01,24,07,13,11.30
2012,01,24,07,14,6.20
2012,01,24,07,15,12.80
2012,01,24,07,16,15.20
2012,01,24,07,17,17.50
2012,01,24,07,18,16.30
2012,01,24,07,19,11.80
2012,01,24,07,20,14.60
2012,01,24,07,21,13.80
2012,01,24,07,22,7.40
2012,01,24,07,23,13.00
2012,01,24,07,24,16.00
2012,01,24,07,25,9.70
2012,01,24,07,26,12.90
2012,01,24,07,27,15.40
2012,01,24,07,28,12.00
2012,01,24,07,29,14.20
2012,01,24,07,30,11.20
2012,01,24,07,31,8.90
2012,01,24,07,32,10.20
2012,01,24,07,33,9.70
2012,01,24,07,34,9.70
2012,01,24,07,35,11.40
2012,01,24,07,36,9.50
2012,01,24,07,37,12.20
2012,01,24,07,38,15.60
2012,01,24,07,39,20.40
2012,01,24,07,40,18.60
2012,01,24,07,41,16.60
2012,01,24,07,42,15.80
2012,01,24,07,43,17.90
2012,01,24,07,44,13.70
2012,01,24,07,45,15.30
2012,01,24,07,46,20.20
2012,01,24,07,47,16.50
2012,01,24,07,48,13.60
2012,01,24,07,49,8.50
2012,01,24,07,50,17.60
2012,01,24,07,51,15.70
2012,01,24,07,52,19.50
2012,01,24,07,53,15.40
2012,01,24,07,54,17.00
2012,01,24,07,55,20.60
2012,01,24,07,56,14.40
2012,01,24,07,57,17.40
2012,01,24,07,58,14.70
2012,01,24,07,59,11.30
2012,01,24,08,00,18.20
2012,01,24,08,01,13.80
2012,01,24,08,02,16.20
2012,01,24,08,03,14.40
2012,01,24,08,04,11.60
2012,01,24,08,05,14.60
2012,01,24,08,06,11.70
2012,01,24,08,07,22.00
2012,01,24,08,08,13.40
2012,01,24,08,09,16.10
2012,01,24,08,10,16.10
2012,01,24,08,11,20.60
2012,01,24,08,12,18.60
2012,01,24,08,13,9.90
2012,01,24,08,14,11.90
2012,01,24,08,15,14.80
2012,01,24,08,16,11.80
2012,01,24,08,17,11.20
2012,01,24,08,18,9.90
2012,01,24,08,19,13.20
2012,01,24,08,20,12.10
2012,01,24,08,21,9.80
2012,01,24,08,22,15.50
2012,01,24,08,23,13.80
2012,01,24,08,24,15.40
2012,01,24,08,25,11.50
2012,01,24,08,26,21.60
2012,01,24,08,27,19.50
2012,01,24,08,28,12.90
2012,01,24,08,29,13.60
2012,01,24,08,30,11.40
2012,01,24,08,31,16.90
2012,01,24,08,32,9.60
2012,01,24,08,33,10.20
2012,01,24,08,34,14.70
2012,01,24,08,35,16.20
2012,01,24,08,36,9.00
2012,01,24,08,37,10.50
2012,01,24,08,38,8.00
2012,01,24,08,39,17.10
2012,01,24,08,40,12.70
2012,01,24,08,41,19.00
2012,01,24,08,42,11.90
2012,01,24,08,43,17.60
2012,01,24,08,44,13.60
2012,01,24,08,45,14.60
2012,01,24,08,46,11.70
2012,01,24,08,47,24.40
2012,01,24,08,48,17.10
2012,01,24,08,49,18.50
2012,01,24,08,50,18.80
2012,01,24,08,51,18.20
2012,01,24,08,52,19.50
2012,01,24,08,53,14.80
2012,01,24,08,54,15.40
2012,01,24,08,55,15.80
2012,01,24,08,56,16.80
2012,01,24,08,57,18.20
2012,01,24,08,58,16.90
2012,01,24,08,59,13.20
2012,01,24,09,00,12.20
2012,01,24,09,01,16.30
2012,01,24,09,02,16.50
2012,01,24,09,03,20.10
2012,01,24,09,04,15.30
2012,01,24,09,05,12.30
2012,01,24,09,06,17.70
2012,01,24,09,07,16.70
2012,01,24,09,08,19.20
2012,01,24,09,09,17.50
2012,01,24,09,10,18.70
2012,01,24,09,11,19.60
2012,01,24,09,12,17.10
2012,01,24,09,13,22.10
2012,01,24,09,14,20.80
2012,01,24,09,15,17.30
2012,01,24,09,16,18.70
2012,01,24,09,17,25.60
2012,01,24,09,18,21.40
2012,01,24,09,19,19.40
2012,01,24,09,20,22.00
2012,01,24,09,21,14.20
2012,01,24,09,22,15.40
2012,01,24,09,23,24.20
2012,01,24,09,24,21.40
2012,01,24,09,25,19.50
2012,01,24,09,26,22.40
2012,01,24,09,27,22.90
2012,01,24,09,28,15.60
2012,01,24,09,29,23.00
2012,01,24,09,30,16.70
2012,01,24,09,31,18.70
2012,01,24,09,32,19.10
2012,01,24,09,33,20.60
2012,01,24,09,34,14.80
2012,01,24,09,35,21.30
2012,01,24,09,36,13.50
2012,01,24,09,37,19.60
2012,01,24,09,38,15.00
2012,01,24,09,39,12.40
2012,01,24,09,40,15.00
2012,01,24,09,41,13.00
2012,01,24,09,42,22.50
2012,01,24,09,43,21.90
2012,01,24,09,44,15.60
2012,01,24,09,45,18.30
2012,01,24,09,46,19.90
2012,01,24,09,47,21.20
2012,01,24,09,48,14.00
2012,01,24,09,49,15.10
2012,01,24,09,50,19.10
2012,01,24,09,51,20.80
2012,01,24,09,52,21.20
2012,01,24,09,53,19.30
2012,01,24,09,54,14.50
2012,01,24,09,55,11.50
2012,01,24,09,56,17.20
2012,01,24,09,57,19.00
2012,01,24,09,58,13.60
2012,01,24,09,59,19.90
2012,01,24,10,00,27.10
2012,01,24,10,01,14.70
2012,01,24,10,02,14.40
2012,01,24,10,03,22.00
2012,01,24,10,04,20.00
2012,01,24,10,05,13.60
2012,01,24,10,06,21.10
2012,01,24,10,07,19.10
2012,01,24,10,08,21.20
2012,01,24,10,09,12.60
2012,01,24,10,10,18.60
2012,01,24,10,11,12.60
2012,01,24,10,12,17.10
2012,01,24,10,13,21.40
2012,01,24,10,14,14.90
2012,01,24,10,15,23.70
2012,01,24,10,16,17.00
2012,01,24,10,17,17.70
2012,01,24,10,18,23.10
2012,01,24,10,19,21.90
2012,01,24,10,20,16.70
2012,01,24,10,21,21.00
2012,01,24,10,22,18.00
2012,01,24,10,23,16.40
2012,01,24,10,24,14.40
2012,01,24,10,25,17.40
2012,01,24,10,26,22.10
2012,01,24,10,27,24.30
2012,01,24,10,28,20.40
2012,01,24,10,29,16.00
2012,01,24,10,30,19.00
2012,01,24,10,31,21.20
2012,01,24,10,32,18.60
2012,01,24,10,33,21.60
2012,01,24,10,34,24.50
2012,01,24,10,35,21.70
2012,01,24,10,36,18.00
2012,01,24,10,37,15.20
2012,01,24,10,38,9.90
2012,01,24,10,39,15.90
2012,01,24,10,40,24.70
2012,01,24,10,41,21.90
2012,01,24,10,42,19.00
2012,01,24,10,43,18.80
2012,01,24,10,44,21.50
2012,01,24,10,45,16.70
2012,01,24,10,46,25.70
2012,01,24,10,47,21.10
2012,01,24,10,48,27.30
2012,01,24,10,49,25.00
2012,01,24,10,50,20.40
2012,01,24,10,51,16.70
2012,01,24,10,52,21.80
2012,01,24,10,53,20.60
2012,01,24,10,54,22.50
2012,01,24,10,55,13.60
2012,01,24,10,56,23.60
2012,01,24,10,57,22.50
2012,01,24,10,58,12.30
2012,01,24,10,59,15.90
2012,01,24,11,00,21.60
2012,01,24,11,01,17.70
2012,01,24,11,02,23.20
2012,01,24,11,03,25.70
2012,01,24,11,04,17.60
2012,01,24,11,05,17.10
2012,01,24,11,06,19.80
2012,01,24,11,07,19.30
2012,01,24,11,08,19.60
2012,01,24,11,09,17.50
2012,01,24,11,10,21.90
2012,01,24,11,11,15.90
2012,01,24,11,12,21.20
2012,01,24,11,13,20.20
2012,01,24,11,14,22.00
2012,01,24,11,15,19.70
2012,01,24,11,16,16.30
2012,01,24,11,17,15.50
2012,01,24,11,18,9.20
2012,01,24,11,19,11.70
2012,01,24,11,20,12.60
2012,01,24,11,21,15.30
2012,01,24,11,22,19.10
2012,01,24,11,23,12.50
2012,01,24,11,24,16.10
2012,01,24,11,25,16.50
2012,01,24,11,26,12.10
2012,01,24,11,27,11.30
2012,01,24,11,28,19.40
2012,01,24,11,29,24.00
2012,01,24,11,30,22.80
2012,01,24,11,31,19.60
2012,01,24,11,32,21.60
2012,01,24,11,33,22.40
2012,01,24,11,34,19.70
2012,01,24,11,35,13.40
2012,01,24,11,36,20.10
2012,01,24,11,37,14.20
2012,01,24,11,38,19.00
2012,01,24,11,39,24.10
2012,01,24,11,40,19.70
2012,01,24,11,41,19.80
2012,01,24,11,42,14.20
2012,01,24,11,43,20.90
2012,01,24,11,44,20.40
2012,01,24,11,45,20.50
2012,01,24,11,46,13.90
2012,01,24,11,47,14.20
2012,01,24,11,48,13.60
2012,01,24,11,49,10.30
2012,01,24,11,50,17.90
2012,01,24,11,51,13.20
2012,01,24,11,52,18.00
2012,01,24,11,53,11.90
2012,01,24,11,54,14.60
2012,01,24,11,55,14.90
2012,01,24,11,56,16.00
2012,01,24,11,57,15.30
2012,01,24,11,58,18.10
2012,01,24,11,59,19.60
2012,01,24,12,00,14.10
2012,01,24,12,01,12.60
2012,01,24,12,02,16.20
2012,01,24,12,03,19.60
2012,01,24,12,04,17.70
2012,01,24,12,05,21.00
2012,01,24,12,06,18.60
2012,01,24,12,07,16.20
2012,01,24,12,08,12.00
2012,01,24,12,09,22.20
2012,01,24,12,10,25.70
2012,01,24,12,11,23.30
2012,01,24,12,12,21.90
2012,01,24,12,13,17.40
2012,01,24,12,14,25.50
2012,01,24,12,15,17.00
2012,01,24,12,16,16.70
2012,01,24,12,17,16.30
2012,01,24,12,18,19.10
2012,01,24,12,19,18.40
2012,01,24,12,20,16.20
2012,01,24,12,21,21.90
2012,01,24,12,22,10.10
2012,01,24,12,23,17.10
2012,01,24,12,24,17.20
2012,01,24,12,25,19.40
2012,01,24,12,26,15.40
2012,01,24,12,27,20.10
2012,01,24,12,28,19.30
2012,01,24,12,29,21.00
2012,01,24,12,30,21.20
2012,01,24,12,31,20.50
2012,01,24,12,32,21.00
2012,01,24,12,33,19.10
2012,01,24,12,34,26.10
2012,01,24,12,35,19.30
2012,01,24,12,36,24.80
2012,01,24,12,37,15.70
2012,01,24,12,38,22.60
2012,01,24,12,39,19.60
2012,01,24,12,40,14.00
2012,01,24,12,41,22.50
2012,01,24,12,42,19.10
2012,01,24,12,43,21.60
2012,01,24,12,44,21.60
2012,01,24,12,45,15.50
2012,01,24,12,46,15.90
2012,01,24,12,47,19.60
2012,01,24,12,48,19.30
2012,01,24,12,49,27.90
2012,01,24,12,50,24.00
2012,01,24,12,51,24.70
2012,01,24,12,52,18.20
2012,01,24,12,53,29.10
2012,01,24,12,54,21.20
2012,01,24,12,55,21.00
2012,01,24,12,56,21.60
2012,01,24,12,57,26.00
2012,01,24,12,58,26.30
2012,01,24,12,59,20.00
2012,01,24,13,00,22.70
2012,01,24,13,01,26.90
2012,01,24,13,02,22.30
2012,01,24,13,03,18.70
2012,01,24,13,04,22.40
2012,01,24,13,05,29.40
2012,01,24,13,06,27.70
2012,01,24,13,07,26.70
2012,01,24,13,08,19.60
2012,01,24,13,09,26.40
2012,01,24,13,10,16.60
2012,01,24,13,11,22.40
2012,01,24,13,12,19.20
2012,01,24,13,13,11.40
2012,01,24,13,14,14.60
2012,01,24,13,15,12.60
2012,01,24,13,16,19.90
2012,01,24,13,17,16.30
2012,01,24,13,18,19.50
2012,01,24,13,19,20.50
2012,01,24,13,20,16.50
2012,01,24,13,21,23.10
2012,01,24,13,22,20.00
2012,01,24,13,23,20.00
2012,01,24,13,24,24.40
2012,01,24,13,25,17.90
2012,01,24,13,26,13.80
2012,01,24,13,27,19.30
2012,01,24,13,28,17.20
2012,01,24,13,29,20.10
2012,01,24,13,30,20.30
2012,01,24,13,31,21.10
2012,01,24,13,32,22.20
2012,01,24,13,33,21.20
2012,01,24,13,34,26.60
2012,01,24,13,35,29.00
2012,01,24,13,36,23.70
2012,01,24,13,37,17.70
2012,01,24,13,38,21.60
2012,01,24,13,39,21.00
2012,01,24,13,40,23.70
2012,01,24,13,41,23.90
2012,01,24,13,42,13.90
2012,01,24,13,43,25.30
2012,01,24,13,44,19.10
2012,01,24,13,45,15.10
2012,01,24,13,46,21.20
2012,01,24,13,47,25.70
2012,01,24,13,48,20.00
2012,01,24,13,49,22.10
2012,01,24,13,50,16.60
2012,01,24,13,51,17.50
2012,01,24,13,52,13.80
2012,01,24,13,53,18.80
2012,01,24,13,54,14.70
2012,01,24,13,55,22.90
2012,01,24,13,56,17.30
2012,01,24,13,57,23.30
2012,01,24,13,58,24.00
2012,01,24,13,59,22.00
2012,01,24,14,00,21.80
2012,01,24,14,01,20.60
2012,01,24,14,02,20.20
2012,01,24,14,03,21.30
2012,01,24,14,04,13.10
2012,01,24,14,05,17.80
2012,01,24,14,06,25.90
2012,01,24,14,07,16.40
2012,01,24,14,08,20.50
2012,01,24,14,09,23.40
2012,01,24,14,10,23.80
2012,01,24,14,11,22.30
2012,01,24,14,12,22.30
2012,01,24,14,13,16.10
2012,01,24,14,14,25.40
2012,01,24,14,15,22.90
2012,01,24,14,16,19.70
2012,01,24,14,17,19.30
2012,01,24,14,18,18.70
2012,01,24,14,19,19.60
2012,01,24,14,20,21.60
2012,01,24,14,21,23.30
2012,01,24,14,22,17.90
2012,01,24,14,23,21.80
2012,01,24,14,24,15.60
2012,01,24,14,25,17.90
2012,01,24,14,26,17.50
2012,01,24,14,27,14.80
2012,01,24,14,28,17.10
2012,01,24,14,29,23.10
2012,01,24,14,30,15.40
2012,01,24,14,31,10.80
2012,01,24,14,32,10.20
2012,01,24,14,33,12.50
2012,01,24,14,34,22.80
2012,01,24,14,35,13.20
2012,01,24,14,36,13.20
2012,01,24,14,37,12.20
2012,01,24,14,38,13.70
2012,01,24,14,39,15.60
2012,01,24,14,40,10.60
2012,01,24,14,41,14.90
2012,01,24,14,42,16.80
2012,01,24,14,43,20.10
2012,01,24,14,44,20.50
2012,01,24,14,45,19.10
2012,01,24,14,46,16.40
2012,01,24,14,47,8.40
2012,01,24,14,48,15.50
2012,01,24,14,49,24.10
2012,01,24,14,50,19.20
2012,01,24,14,51,16.30
2012,01,24,14,52,17.50
2012,01,24,14,53,21.40
2012,01,24,14,54,26.10
2012,01,24,14,55,23.10
2012,01,24,14,56,20.80
2012,01,24,14,57,19.90
2012,01,24,14,58,20.00
2012,01,24,14,59,18.20
2012,01,24,15,00,23.70
2012,01,24,15,01,24.20
2012,01,24,15,02,21.80
2012,01,24,15,03,22.10
2012,01,24,15,04,22.00
2012,01,24,15,05,17.60
2012,01,24,15,06,19.90
2012,01,24,15,07,21.90
2012,01,24,15,08,18.60
2012,01,24,15,09,19.70
2012,01,24,15,10,12.80
2012,01,24,15,11,14.10
2012,01,24,15,12,11.00
2012,01,24,15,13,18.10
2012,01,24,15,14,17.90
2012,01,24,15,15,23.50
2012,01,24,15,16,22.20
2012,01,24,15,17,20.00
2012,01,24,15,18,23.60
2012,01,24,15,19,20.70
2012,01,24,15,20,14.00
2012,01,24,15,21,15.00
2012,01,24,15,22,14.30
2012,01,24,15,23,12.90
2012,01,24,15,24,13.00
2012,01,24,15,25,19.10
2012,01,24,15,26,28.50
2012,01,24,15,27,18.00
2012,01,24,15,28,12.40
2012,01,24,15,29,20.60
2012,01,24,15,30,12.30
2012,01,24,15,31,21.00
2012,01,24,15,32,22.70
2012,01,24,15,33,16.00
2012,01,24,15,34,19.10
2012,01,24,15,35,14.20
2012,01,24,15,36,23.90
2012,01,24,15,37,26.10
2012,01,24,15,38,15.90
2012,01,24,15,39,17.80
2012,01,24,15,40,20.00
2012,01,24,15,41,21.80
2012,01,24,15,42,27.80
2012,01,24,15,43,22.70
2012,01,24,15,44,23.10
2012,01,24,15,45,23.30
2012,01,24,15,46,21.00
2012,01,24,15,47,21.20
2012,01,24,15,48,20.20
2012,01,24,15,49,19.10
2012,01,24,15,50,20.10
2012,01,24,15,51,19.30
2012,01,24,15,52,20.70
2012,01,24,15,53,22.50
2012,01,24,15,54,15.40
2012,01,24,15,55,15.40
2012,01,24,15,56,18.30
2012,01,24,15,57,22.10
2012,01,24,15,58,23.10
2012,01,24,15,59,21.60
2012,01,24,16,00,15.60
2012,01,24,16,01,18.90
2012,01,24,16,02,23.30
2012,01,24,16,03,17.40
2012,01,24,16,04,23.80
2012,01,24,16,05,21.70
2012,01,24,16,06,18.00
2012,01,24,16,07,24.40
2012,01,24,16,08,20.30
2012,01,24,16,09,20.70
2012,01,24,16,10,20.20
2012,01,24,16,11,16.40
2012,01,24,16,12,22.50
2012,01,24,16,13,16.70
2012,01,24,16,14,16.90
2012,01,24,16,15,20.00
2012,01,24,16,16,14.00
2012,01,24,16,17,19.70
2012,01,24,16,18,17.70
2012,01,24,16,19,20.90
2012,01,24,16,20,16.20
2012,01,24,16,21,23.00
2012,01,24,16,22,15.50
2012,01,24,16,23,20.60
2012,01,24,16,24,24.00
2012,01,24,16,25,16.70
2012,01,24,16,26,13.40
2012,01,24,16,27,18.40
2012,01,24,16,28,13.50
2012,01,24,16,29,14.90
2012,01,24,16,30,20.30
2012,01,24,16,31,15.50
2012,01,24,16,32,13.60
2012,01,24,16,33,20.10
2012,01,24,16,34,11.70
2012,01,24,16,35,13.10
2012,01,24,16,36,19.70
2012,01,24,16,37,11.90
2012,01,24,16,38,14.60
2012,01,24,16,39,14.10
2012,01,24,16,40,14.80
2012,01,24,16,41,14.60
2012,01,24,16,42,17.60
2012,01,24,16,43,14.80
2012,01,24,16,44,15.40
2012,01,24,16,45,13.20
2012,01,24,16,46,12.40
2012,01,24,16,47,9.20
2012,01,24,16,48,11.20
2012,01,24,16,49,10.10
2012,01,24,16,50,10.80
2012,01,24,16,51,13.00
2012,01,24,16,52,12.30
2012,01,24,16,53,10.20
2012,01,24,16,54,13.60
2012,01,24,16,55,11.30
2012,01,24,16,56,8.90
2012,01,24,16,57,12.10
2012,01,24,16,58,14.60
2012,01,24,16,59,8.20
2012,01,24,17,00,4.20
2012,01,24,17,01,4.40
2012,01,24,17,02,8.50
2012,01,24,17,03,7.30
2012,01,24,17,04,4.90
2012,01,24,17,05,4.80
2012,01,24,17,06,6.40
2012,01,24,17,07,6.30
2012,01,24,17,08,3.60
2012,01,24,17,09,9.70
2012,01,24,17,10,6.70
2012,01,24,17,11,5.50
2012,01,24,17,12,5.00
2012,01,24,17,13,2.70
2012,01,24,17,14,0.00
2012,01,24,17,15,0.00
2012,01,24,17,16,1.50
2012,01,24,17,17,3.40
2012,01,24,17,18,1.60
2012,01,24,17,19,0.80
2012,01,24,17,20,7.00
2012,01,24,17,21,6.40
2012,01,24,17,22,7.20
2012,01,24,17,23,6.00
2012,01,24,17,24,3.10
2012,01,24,17,25,8.40
2012,01,24,17,26,5.20
2012,01,24,17,27,6.70
2012,01,24,17,28,7.40